Regional Weather Roundup
Issued by NWS

Home | Current Version | Previous Version | Text Only | Print | Product List | Glossary On
Versions: 1 2 3 4 5 6 7 8 9 10 11 12 13 14 15 16 17 18 19 20 21 22 23 24 25 26 27 28 29 30 31 32 33 34 35 36 37 38 39 40 41 42 43 44 45 46 47 48 49 50
000
ASUS43 KLMK 272102
RWRKY
KENTUCKY REGIONAL WEATHER ROUNDUP
NATIONAL WEATHER SERVICE LOUISVILLE KY
500 PM EDT SUN JUL 27 2014

NOTE "FAIR" INDICATES FEW OR NO CLOUDS BELOW 12,000 FEET
WITH NO SIGNIFICANT WEATHER AND/OR OBSTRUCTIONS TO VISIBILITY.

KYZ001>023-026-027-061>063-070>075-272200-
WESTERN AND SOUTH CENTRAL KENTUCKY

CITY           SKY/WX    TMP DP  RH WIND       PRES   REMARKS
PADUCAH        PTSUNNY   92  78  63 W8        29.85F HX 107
HENDERSON      SUNNY     90  73  58 W16       29.81F HX  98
OWENSBORO      MOSUNNY   91  76  61 W12G23    29.82S HX 102
HOPKINSVILLE   MOSUNNY   91  76  60 W24       29.86S HX 102
BOWLING GREEN  PTSUNNY   94  74  52 W17G28    29.81F HX 104
GLASGOW        MOSUNNY   92  73  54 W16G22    29.80F HX 101
$$

KYZ024-025-028>034-038-045-046-053-272200-
NORTH CENTRAL KENTUCKY

CITY           SKY/WX    TMP DP  RH WIND       PRES   REMARKS
LOUISVILLE/SDF MOSUNNY   90  74  59 W18G30    29.75F HX  99
LOUISVILLE/LOU MOSUNNY   89  74  60 W14G25    29.75F HX  98
FORT KNOX      MOSUNNY   87  76  70 W13       29.77F HX  97
$$

KYZ035>037-039>044-047>052-055>060-089>105-272200-
NORTHEAST KENTUCKY

CITY           SKY/WX    TMP DP  RH WIND       PRES   REMARKS
LEXINGTON      MOSUNNY   84  77  79 W9G20     29.77F HX  94
COVINGTON      PTSUNNY   79  73  82 SW12G18   29.73F HAZE
FRANKFORT      PTSUNNY   84  77  79 W7G18     29.75F HX  94
$$

KYZ054-064>069-076>088-106>120-272200-
SOUTHEAST KENTUCKY

CITY           SKY/WX    TMP DP  RH WIND       PRES   REMARKS
JACKSON        TSTM      73  70  90 VRB5      29.84F FOG
LONDON         PTSUNNY   82  70  66 SW6       29.84S
SOMERSET       TSTM      73  73 100 NE10      29.83R
MIDDLESBORO    CLOUDY    81  73  76 SE3       29.87R
MONTICELLO     PTCLDY    84  77  80 S14G20    29.79F THUNDER HAZE
$$



USA.gov is the U.S. government's official web portal to all federal, state and local government web resources and services.